Regional Weather Roundup
Issued by NWS

Home | Current Version | Previous Version | Text Only | Print | Product List | Glossary On
Versions: 1 2 3 4 5 6 7 8 9 10 11 12 13 14 15 16 17 18 19 20 21 22 23 24 25 26 27 28 29 30 31 32 33 34 35 36 37 38 39 40 41 42 43 44 45 46 47 48 49 50
000
ASUS43 KOAX 250510
RWRNE

WEATHER ROUNDUP FOR NEBRASKA
NATIONAL WEATHER SERVICE OMAHA NE
1200 AM CDT WED MAY 25 2016

NOTES: SATELLITE DATA IS BEING USED TO AUGMENT CLOUD COVER ABOVE
       12000 FEET.
       "FAIR" INDICATES FEW OR NO CLOUDS BELOW 12,000 FEET WITH NO
       SIGNIFICANT WEATHER AND/OR OBSTRUCTIONS TO VISIBILITY.

  * THESE STATIONS DO NOT REPORT WEATHER SUCH AS RAIN...SNOW OR FOG.

NEZ001>004-019>022-054>056-250600-
NEBRASKA PANHANDLE

CITY           SKY/WX    TMP DP  RH WIND       PRES   REMARKS
SCOTTSBLUFF    PTCLDY    53  47  79 E14       29.83F
ALLIANCE       CLOUDY    51  49  92 NE15      29.83F
CHADRON        CLOUDY    54  32  43 E13       29.80F
KIMBALL        CLOUDY    53  49  86 E9        29.87R
SIDNEY         CLOUDY    55  49  80 E9        29.84R
$$

NEZ057>060-069>072-079>082-250600-
SOUTHWEST NEBRASKA

CITY           SKY/WX    TMP DP  RH WIND       PRES   REMARKS
NORTH PLATTE   LGT RAIN  59  53  80 MISG      29.81F
IMPERIAL       CLOUDY    55  52  89 N5        29.81R
LEXINGTON      CLOUDY    69  60  75 W8        29.85R
MCCOOK         CLOUDY    66  60  81 N13       29.83R
OGALLALA       CLOUDY    57  53  86 E7        29.79R
$$

NEZ005>010-023>029-035>040-094-250600-
NORTH CENTRAL NEBRASKA

CITY           SKY/WX    TMP DP  RH WIND       PRES   REMARKS
VALENTINE      RAIN      56  32  40 N24G33    29.84R
AINSWORTH      CLOUDY    68  57  68 S8        29.80F
BROKEN BOW     CLOUDY    66  59  78 SE6       29.80S
O`NEILL        MOCLDY    68  57  67 SE7       29.81F
ORD            CLOUDY    68  60  75 SE9       29.77F
THEDFORD       TSTM      56  54  95 NW12      29.89S
$$

NEZ041-046>049-061>064-073>077-083>087-250600-
SOUTH CENTRAL NEBRASKA

CITY           SKY/WX    TMP DP  RH WIND       PRES   REMARKS
GRAND ISLAND   CLOUDY    70  61  73 SE15G23   29.79F
AURORA         CLOUDY    70  63  79 SE15      29.79F
HASTINGS       CLOUDY    70  62  76 SE10G20   29.78F
HEBRON         CLOUDY    65  61  87 S16       29.87S
HOLDREGE       CLOUDY    67  61  80 SE10      29.77R
KEARNEY *      CLOUDY    70  61  73 SE14      29.77F
YORK           CLOUDY    72  63  73 SE15      29.82F
$$

NEZ011>018-030>034-042>045-250600-
NORTHEAST NEBRASKA

CITY           SKY/WX    TMP DP  RH WIND       PRES   REMARKS
NORFOLK        CLOUDY    69  57  65 SE12      29.82S
ALBION         CLOUDY    70  58  65 SE13      29.80F
BLAIR          CLOUDY    72  64  74 SE10G16   29.88R
FREMONT        CLOUDY    71  62  73 SE12G17   29.86R
TEKAMAH        CLOUDY    69  61  75 SE12      29.85S
WAYNE          CLOUDY    67  60  77 SE8       29.84S
$$

NEZ050>053-065>068-078-088>093-250600-
SOUTHEAST NEBRASKA

CITY           SKY/WX    TMP DP  RH WIND       PRES   REMARKS
LINCOLN        CLOUDY    73  63  70 SE13      29.86R
OMAHA EPPLEY   CLOUDY    72  63  73 SE10      29.87S
BEATRICE       TSTM      63  60  91 SW29G35   29.92R
FALLS CITY     CLOUDY    73  66  78 SE7       29.87F
NEBRASKA CITY  CLOUDY    71  65  80 SE8       29.89R
PLATTSMOUTH    CLOUDY    73  66  77 SE12G17   29.90R
$$

NEZ044-045-051>053-067-250600-
OMAHA AREA

CITY           SKY/WX    TMP DP  RH WIND       PRES   REMARKS
OMAHA EPPLEY   CLOUDY    72  63  73 SE10      29.87S
BLAIR          CLOUDY    72  64  74 SE10G16   29.88R
FREMONT        CLOUDY    71  62  73 SE12G17   29.86R
MILLARD        CLOUDY    73  64  75 SE12      29.87R
PLATTSMOUTH    CLOUDY    73  66  77 SE12G17   29.90R
WAHOO          FAIR      71  64  78 SE14      29.85S
$$




USA.gov is the U.S. government's official web portal to all federal, state and local government web resources and services.